Time,TemperatureF,DewpointF,PressureIn,WindDirection,WindDirectionDegrees,WindSpeedMPH,WindSpeedGustMPH,Humidity,HourlyPrecipIn,Conditions,Clouds,dailyrainin,SoftwareType,DateUTC
2013-01-11 00:00:00,25.6,-1.0,30.48,North,0,0.0,0.2,31,0.00,,,0.00,WUHU216HW,2013-01-11 05:00:00,
2013-01-11 00:01:00,25.4,-0.4,30.48,WSW,248,0.0,0.2,32,0.00,,,0.00,WUHU216HW,2013-01-11 05:01:00,
2013-01-11 00:02:00,25.4,-0.4,30.48,WSW,248,0.0,0.2,32,0.00,,,0.00,WUHU216HW,2013-01-11 05:02:00,
2013-01-11 00:03:00,25.2,0.6,30.48,WSW,248,0.0,0.0,34,0.00,,,0.00,WUHU216HW,2013-01-11 05:03:00,
2013-01-11 00:08:00,24.7,1.4,30.48,WSW,248,0.0,0.0,36,0.00,,,0.00,WUHU216HW,2013-01-11 05:08:00,
2013-01-11 00:13:00,24.1,2.1,30.48,WSW,248,0.0,0.0,38,0.00,,,0.00,WUHU216HW,2013-01-11 05:13:00,
2013-01-11 00:18:00,24.1,1.4,30.47,North,0,0.0,0.0,37,0.00,,,0.00,WUHU216HW,2013-01-11 05:18:00,
2013-01-11 00:23:00,24.5,-5.0,30.47,North,0,0.4,0.4,27,0.00,,,0.00,WUHU216HW,2013-01-11 05:23:00,
2013-01-11 00:28:00,25.4,-23.7,30.47,North,0,0.7,0.9,9,0.00,,,0.00,WUHU216HW,2013-01-11 05:28:00,
2013-01-11 00:33:00,25.2,-15.7,30.47,North,0,0.0,0.9,16,0.00,,,0.00,WUHU216HW,2013-01-11 05:33:00,
2013-01-11 00:38:00,24.8,-5.6,30.47,South,180,0.0,0.0,26,0.00,,,0.00,WUHU216HW,2013-01-11 05:38:00,
2013-01-11 00:43:00,24.5,-3.3,30.47,WNW,293,0.0,0.0,29,0.00,,,0.00,WUHU216HW,2013-01-11 05:43:00,
2013-01-11 00:48:00,24.1,-2.8,30.47,North,0,0.0,0.2,30,0.00,,,0.00,WUHU216HW,2013-01-11 05:48:00,
2013-01-11 00:53:00,25.0,-23.9,30.47,North,0,0.0,1.1,9,0.00,,,0.00,WUHU216HW,2013-01-11 05:53:00,
2013-01-11 00:58:00,24.8,-14.7,30.47,NNW,338,0.0,1.1,17,0.00,,,0.00,WUHU216HW,2013-01-11 05:58:00,
2013-01-11 01:03:00,24.7,-8.2,30.46,North,0,0.2,1.1,23,0.00,,,0.00,WUHU216HW,2013-01-11 06:03:00,
2013-01-11 01:08:00,25.0,-24.1,30.46,North,0,0.4,1.1,10,0.00,,,0.00,WUHU216HW,2013-01-11 06:08:00,
2013-01-11 01:13:00,24.8,-14.7,30.47,NNE,23,0.0,0.9,17,0.00,,,0.00,WUHU216HW,2013-01-11 06:13:00,
2013-01-11 01:18:00,24.7,-16.2,30.47,North,0,0.4,0.7,16,0.00,,,0.00,WUHU216HW,2013-01-11 06:18:00,
2013-01-11 01:23:00,24.8,-21.4,30.47,North,0,0.0,0.9,12,0.00,,,0.00,WUHU216HW,2013-01-11 06:23:00,
2013-01-11 01:28:00,24.7,-14.8,30.47,NNE,23,0.0,0.9,17,0.00,,,0.00,WUHU216HW,2013-01-11 06:28:00,
2013-01-11 01:33:00,24.1,-9.5,30.47,NNW,338,0.0,0.2,22,0.00,,,0.00,WUHU216HW,2013-01-11 06:33:00,
2013-01-11 01:38:00,23.8,-6.5,30.47,NW,315,0.0,0.0,26,0.00,,,0.00,WUHU216HW,2013-01-11 06:38:00,
2013-01-11 01:43:00,23.4,-5.9,30.47,NNW,338,0.0,0.0,27,0.00,,,0.00,WUHU216HW,2013-01-11 06:43:00,
2013-01-11 01:48:00,23.4,-8.5,30.47,North,0,0.0,0.0,24,0.00,,,0.00,WUHU216HW,2013-01-11 06:48:00,
2013-01-11 01:53:00,24.1,-23.3,30.47,North,0,0.0,0.0,11,0.00,,,0.00,WUHU216HW,2013-01-11 06:53:00,
2013-01-11 01:58:00,24.3,-23.2,30.47,North,0,0.0,0.0,11,0.00,,,0.00,WUHU216HW,2013-01-11 06:58:00,
2013-01-11 02:03:00,24.5,-24.4,30.47,North,0,0.0,0.0,2,0.00,,,0.00,WUHU216HW,2013-01-11 07:03:00,
2013-01-11 02:08:00,24.3,-19.2,30.47,WSW,248,0.0,0.0,14,0.00,,,0.00,WUHU216HW,2013-01-11 07:08:00,
2013-01-11 02:13:00,23.9,-12.7,30.46,WSW,248,0.0,0.0,19,0.00,,,0.00,WUHU216HW,2013-01-11 07:13:00,
2013-01-11 02:18:00,23.4,-10.1,30.46,West,270,0.0,0.0,22,0.00,,,0.00,WUHU216HW,2013-01-11 07:18:00,
2013-01-11 02:23:00,23.0,-8.7,30.46,West,270,0.0,0.0,24,0.00,,,0.00,WUHU216HW,2013-01-11 07:23:00,
2013-01-11 02:28:00,22.7,-6.6,30.46,WNW,293,0.0,0.0,27,0.00,,,0.00,WUHU216HW,2013-01-11 07:28:00,
2013-01-11 02:33:00,22.7,-16.4,30.46,North,0,0.0,0.0,17,0.00,,,0.00,WUHU216HW,2013-01-11 07:33:00,
2013-01-11 02:38:00,22.7,-11.5,30.47,WSW,248,0.0,0.0,21,0.00,,,0.00,WUHU216HW,2013-01-11 07:38:00,
2013-01-11 02:43:00,22.5,-10.9,30.46,NNW,338,0.0,0.0,22,0.00,,,0.00,WUHU216HW,2013-01-11 07:43:00,
2013-01-11 02:48:00,22.3,-10.3,30.46,NNW,338,0.0,0.0,23,0.00,,,0.00,WUHU216HW,2013-01-11 07:48:00,
2013-01-11 02:53:00,22.0,-9.7,30.46,West,270,0.0,0.0,24,0.00,,,0.00,WUHU216HW,2013-01-11 07:53:00,
2013-01-11 02:58:00,21.8,-8.2,30.45,NNW,338,0.0,0.0,26,0.00,,,0.00,WUHU216HW,2013-01-11 07:58:00,
2013-01-11 03:03:00,21.4,-7.7,30.45,NNW,338,0.0,0.0,27,0.00,,,0.00,WUHU216HW,2013-01-11 08:03:00,
2013-01-11 03:08:00,21.2,-7.0,30.45,NNW,338,0.0,0.0,28,0.00,,,0.00,WUHU216HW,2013-01-11 08:08:00,
2013-01-11 03:13:00,21.1,-6.4,30.45,NNW,338,0.0,0.0,29,0.00,,,0.00,WUHU216HW,2013-01-11 08:13:00,
2013-01-11 03:18:00,20.9,-7.4,30.45,NNW,338,0.0,0.0,28,0.00,,,0.00,WUHU216HW,2013-01-11 08:18:00,
2013-01-11 03:23:00,20.7,-7.6,30.45,WNW,293,0.0,0.0,28,0.00,,,0.00,WUHU216HW,2013-01-11 08:23:00,
2013-01-11 03:28:00,20.7,-10.8,30.44,NNW,338,0.0,0.0,24,0.00,,,0.00,WUHU216HW,2013-01-11 08:28:00,
2013-01-11 03:33:00,21.2,-13.7,30.44,NNW,338,0.0,0.0,20,0.00,,,0.00,WUHU216HW,2013-01-11 08:33:00,
2013-01-11 03:38:00,21.2,-12.9,30.44,South,180,0.0,0.0,21,0.00,,,0.00,WUHU216HW,2013-01-11 08:38:00,
2013-01-11 03:43:00,20.9,-11.5,30.44,South,180,0.0,0.0,23,0.00,,,0.00,WUHU216HW,2013-01-11 08:43:00,
2013-01-11 03:48:00,20.9,-12.3,30.43,South,180,0.0,0.0,22,0.00,,,0.00,WUHU216HW,2013-01-11 08:48:00,
2013-01-11 03:53:00,21.2,-19.0,30.43,South,180,0.0,0.0,16,0.00,,,0.00,WUHU216HW,2013-01-11 08:53:00,
2013-01-11 03:58:00,21.2,-17.6,30.43,South,180,0.0,0.0,17,0.00,,,0.00,WUHU216HW,2013-01-11 08:58:00,
2013-01-11 04:03:00,21.1,-13.9,30.43,North,0,0.2,0.2,20,0.00,,,0.00,WUHU216HW,2013-01-11 09:03:00,
2013-01-11 04:08:00,21.2,-19.0,30.43,NNW,338,0.0,0.7,16,0.00,,,0.00,WUHU216HW,2013-01-11 09:08:00,
2013-01-11 04:13:00,21.4,-18.8,30.43,SSW,203,0.0,0.7,16,0.00,,,0.00,WUHU216HW,2013-01-11 09:13:00,
2013-01-11 04:18:00,21.2,-19.0,30.43,SSW,203,0.0,0.0,16,0.00,,,0.00,WUHU216HW,2013-01-11 09:18:00,
2013-01-11 04:23:00,21.1,-17.8,30.43,SSW,203,0.0,0.0,17,0.00,,,0.00,WUHU216HW,2013-01-11 09:23:00,
2013-01-11 04:28:00,20.5,-13.4,30.43,SSW,203,0.0,0.0,21,0.00,,,0.00,WUHU216HW,2013-01-11 09:28:00,
2013-01-11 04:33:00,20.5,-12.6,30.43,North,0,0.0,0.0,22,0.00,,,0.00,WUHU216HW,2013-01-11 09:33:00,
2013-01-11 04:38:00,20.7,-18.1,30.42,North,0,0.2,0.4,17,0.00,,,0.00,WUHU216HW,2013-01-11 09:38:00,
2013-01-11 04:43:00,20.9,-19.2,30.42,WSW,248,0.0,0.4,16,0.00,,,0.00,WUHU216HW,2013-01-11 09:43:00,
2013-01-11 04:48:00,20.7,-18.1,30.43,SW,225,0.0,0.2,17,0.00,,,0.00,WUHU216HW,2013-01-11 09:48:00,
2013-01-11 04:53:00,20.5,-16.9,30.43,North,0,0.0,0.0,18,0.00,,,0.00,WUHU216HW,2013-01-11 09:53:00,
2013-01-11 04:58:00,20.5,-20.9,30.43,North,0,0.0,0.0,15,0.00,,,0.00,WUHU216HW,2013-01-11 09:58:00,
2013-01-11 05:03:00,20.7,-20.8,30.43,North,0,0.0,0.0,15,0.00,,,0.00,WUHU216HW,2013-01-11 10:03:00,
2013-01-11 05:08:00,20.7,-20.8,30.43,North,0,0.0,0.0,15,0.00,,,0.00,WUHU216HW,2013-01-11 10:08:00,
2013-01-11 05:13:00,20.5,-18.3,30.43,North,0,0.0,0.0,17,0.00,,,0.00,WUHU216HW,2013-01-11 10:13:00,
2013-01-11 05:18:00,20.5,-19.5,30.43,WSW,248,0.0,0.0,16,0.00,,,0.00,WUHU216HW,2013-01-11 10:18:00,
2013-01-11 05:23:00,20.3,-18.3,30.44,SW,225,0.0,0.0,17,0.00,,,0.00,WUHU216HW,2013-01-11 10:23:00,
2013-01-11 05:28:00,20.0,-14.7,30.44,SW,225,0.0,0.0,20,0.00,,,0.00,WUHU216HW,2013-01-11 10:28:00,
2013-01-11 05:33:00,19.8,-14.8,30.44,SW,225,0.0,0.0,20,0.00,,,0.00,WUHU216HW,2013-01-11 10:33:00,
2013-01-11 05:38:00,19.8,-16.1,30.44,North,0,0.0,0.0,19,0.00,,,0.00,WUHU216HW,2013-01-11 10:38:00,
2013-01-11 05:43:00,20.2,-22.5,30.44,North,0,0.0,0.0,14,0.00,,,0.00,WUHU216HW,2013-01-11 10:43:00,
2013-01-11 05:48:00,20.5,-27.5,30.44,North,0,0.0,0.0,9,0.00,,,0.00,WUHU216HW,2013-01-11 10:48:00,
2013-01-11 05:53:00,20.5,-26.2,30.45,WSW,248,0.0,0.0,11,0.00,,,0.00,WUHU216HW,2013-01-11 10:53:00,
2013-01-11 05:58:00,20.3,-21.0,30.45,WSW,248,0.0,0.0,15,0.00,,,0.00,WUHU216HW,2013-01-11 10:58:00,
2013-01-11 06:03:00,19.8,-18.8,30.45,WSW,248,0.0,0.0,17,0.00,,,0.00,WUHU216HW,2013-01-11 11:03:00,
2013-01-11 06:08:00,19.8,-18.8,30.45,WSW,248,0.0,0.0,17,0.00,,,0.00,WUHU216HW,2013-01-11 11:08:00,
2013-01-11 06:13:00,19.8,-18.8,30.45,WSW,248,0.0,0.0,17,0.00,,,0.00,WUHU216HW,2013-01-11 11:13:00,
2013-01-11 06:18:00,19.8,-20.1,30.45,WSW,248,0.0,0.0,16,0.00,,,0.00,WUHU216HW,2013-01-11 11:18:00,
2013-01-11 06:23:00,19.8,-20.1,30.45,SW,225,0.0,0.0,16,0.00,,,0.00,WUHU216HW,2013-01-11 11:23:00,
2013-01-11 06:28:00,19.8,-25.4,30.45,NNE,23,0.0,0.0,12,0.00,,,0.00,WUHU216HW,2013-01-11 11:28:00,
2013-01-11 06:33:00,20.2,-26.5,30.45,NNE,23,0.0,0.0,11,0.00,,,0.00,WUHU216HW,2013-01-11 11:33:00,
2013-01-11 06:38:00,20.3,-27.6,30.45,NNE,23,0.0,0.0,9,0.00,,,0.00,WUHU216HW,2013-01-11 11:38:00,
2013-01-11 06:43:00,20.3,-27.6,30.44,North,0,0.0,0.0,10,0.00,,,0.00,WUHU216HW,2013-01-11 11:43:00,
2013-01-11 06:48:00,20.3,-27.6,30.45,NNW,338,0.0,0.0,10,0.00,,,0.00,WUHU216HW,2013-01-11 11:48:00,
2013-01-11 06:53:00,20.5,-27.5,30.45,North,0,0.0,0.0,10,0.00,,,0.00,WUHU216HW,2013-01-11 11:53:00,
2013-01-11 06:58:00,20.3,-25.0,30.46,West,270,0.0,0.0,12,0.00,,,0.00,WUHU216HW,2013-01-11 11:58:00,
2013-01-11 07:03:00,20.2,-22.5,30.46,West,270,0.0,0.0,14,0.00,,,0.00,WUHU216HW,2013-01-11 12:03:00,
2013-01-11 07:08:00,20.2,-25.1,30.46,North,0,0.0,0.0,12,0.00,,,0.00,WUHU216HW,2013-01-11 12:08:00,
2013-01-11 07:13:00,20.3,-27.6,30.46,North,0,0.0,0.0,7,0.00,,,0.00,WUHU216HW,2013-01-11 12:13:00,
2013-01-11 07:18:00,20.3,-27.6,30.46,North,0,0.0,0.0,9,0.00,,,0.00,WUHU216HW,2013-01-11 12:18:00,
2013-01-11 07:23:00,20.2,-25.1,30.47,SSW,203,0.0,0.0,12,0.00,,,0.00,WUHU216HW,2013-01-11 12:23:00,
2013-01-11 07:28:00,20.2,-25.1,30.47,SSW,203,0.0,0.0,12,0.00,,,0.00,WUHU216HW,2013-01-11 12:28:00,
2013-01-11 07:33:00,20.2,-26.5,30.47,ESE,113,0.0,0.0,11,0.00,,,0.00,WUHU216HW,2013-01-11 12:33:00,
2013-01-11 07:38:00,20.2,-26.5,30.47,ESE,113,0.0,0.0,11,0.00,,,0.00,WUHU216HW,2013-01-11 12:38:00,
2013-01-11 07:43:00,20.5,-27.5,30.47,ESE,113,0.0,0.0,10,0.00,,,0.00,WUHU216HW,2013-01-11 12:43:00,
2013-01-11 07:48:00,20.7,-27.3,30.46,ESE,113,0.0,0.0,6,0.00,,,0.00,WUHU216HW,2013-01-11 12:48:00,
2013-01-11 07:53:00,21.1,-27.1,30.46,ESE,113,0.0,0.0,5,0.00,,,0.00,WUHU216HW,2013-01-11 12:53:00,
2013-01-11 07:58:00,21.2,-27.0,30.47,ESE,113,0.0,0.0,5,0.00,,,0.00,WUHU216HW,2013-01-11 12:58:00,
2013-01-11 08:03:00,21.6,-26.7,30.47,North,0,0.0,0.0,2,0.00,,,0.00,WUHU216HW,2013-01-11 13:03:00,
2013-01-11 08:08:00,21.8,-26.5,30.47,North,0,0.0,0.0,2,0.00,,,0.00,WUHU216HW,2013-01-11 13:08:00,
2013-01-11 08:13:00,22.1,-26.3,30.47,NNE,23,0.0,0.0,1,0.00,,,0.00,WUHU216HW,2013-01-11 13:13:00,
2013-01-11 08:18:00,22.5,-26.0,30.47,NNE,23,0.0,0.0,1,0.00,,,0.00,WUHU216HW,2013-01-11 13:18:00,
2013-01-11 08:23:00,22.7,-25.8,30.47,NNE,23,0.0,0.0,1,0.00,,,0.00,WUHU216HW,2013-01-11 13:23:00,
2013-01-11 08:28:00,23.0,-25.6,30.47,NNE,23,0.0,0.0,1,0.00,,,0.00,WUHU216HW,2013-01-11 13:28:00,
2013-01-11 08:33:00,23.6,-25.1,30.47,NNE,23,0.0,0.0,1,0.00,,,0.00,WUHU216HW,2013-01-11 13:33:00,
2013-01-11 08:38:00,24.1,-24.6,30.46,SE,135,0.0,0.0,1,0.00,,,0.00,WUHU216HW,2013-01-11 13:38:00,
2013-01-11 08:43:00,24.5,-24.4,30.46,SE,135,0.0,0.0,1,0.00,,,0.00,WUHU216HW,2013-01-11 13:43:00,
2013-01-11 08:48:00,25.0,-23.9,30.46,SE,135,0.0,0.0,1,0.00,,,0.00,WUHU216HW,2013-01-11 13:48:00,
2013-01-11 08:53:00,25.6,-23.6,30.46,SE,135,0.0,0.0,1,0.00,,,0.00,WUHU216HW,2013-01-11 13:53:00,
2013-01-11 08:58:00,26.1,-23.1,30.46,SE,135,0.0,0.0,1,0.00,,,0.00,WUHU216HW,2013-01-11 13:58:00,
2013-01-11 09:03:00,26.6,-22.7,30.46,SE,135,0.0,0.0,1,0.00,,,0.00,WUHU216HW,2013-01-11 14:03:00,
2013-01-11 09:08:00,27.4,-22.1,30.46,SSE,158,0.0,0.7,1,0.00,,,0.00,WUHU216HW,2013-01-11 14:08:00,
2013-01-11 09:13:00,28.3,-21.4,30.46,SE,135,0.0,0.7,1,0.00,,,0.00,WUHU216HW,2013-01-11 14:13:00,
2013-01-11 09:18:00,29.2,-20.7,30.46,ESE,113,0.0,0.7,1,0.00,,,0.00,WUHU216HW,2013-01-11 14:18:00,
2013-01-11 09:23:00,29.9,-20.1,30.45,SSE,158,0.0,0.7,1,0.00,,,0.00,WUHU216HW,2013-01-11 14:23:00,
2013-01-11 09:28:00,30.6,-19.5,30.45,SE,135,0.7,0.7,1,0.00,,,0.00,WUHU216HW,2013-01-11 14:28:00,
2013-01-11 09:33:00,31.3,-18.9,30.45,SSW,203,0.0,1.3,1,0.00,,,0.00,WUHU216HW,2013-01-11 14:33:00,
2013-01-11 09:38:00,31.5,-18.8,30.45,SW,225,0.0,1.3,5,0.00,,,0.00,WUHU216HW,2013-01-11 14:38:00,
2013-01-11 09:43:00,32.0,-18.4,30.45,SSE,158,0.2,0.9,10,0.00,,,0.00,WUHU216HW,2013-01-11 14:43:00,
2013-01-11 09:48:00,32.0,-1.9,30.45,ESE,113,0.4,1.3,23,0.00,,,0.00,WUHU216HW,2013-01-11 14:48:00,
2013-01-11 09:53:00,32.4,-1.6,30.45,East,90,0.4,1.8,23,0.00,,,0.00,WUHU216HW,2013-01-11 14:53:00,
2013-01-11 09:58:00,32.8,1.3,30.45,SE,135,0.0,1.8,26,0.00,,,0.00,WUHU216HW,2013-01-11 14:58:00,
2013-01-11 10:03:00,33.3,6.6,30.45,SE,135,0.2,0.4,32,0.00,,,0.00,WUHU216HW,2013-01-11 15:03:00,
2013-01-11 10:08:00,33.7,10.0,30.45,SE,135,0.7,2.0,37,0.00,,,0.00,WUHU216HW,2013-01-11 15:08:00,
2013-01-11 10:13:00,34.2,12.4,30.45,SSE,158,0.0,2.0,40,0.00,,,0.00,WUHU216HW,2013-01-11 15:13:00,
2013-01-11 10:18:00,35.5,20.4,30.44,SE,135,0.9,1.3,54,0.00,,,0.00,WUHU216HW,2013-01-11 15:18:00,
2013-01-11 10:23:00,35.6,17.4,30.44,ESE,113,0.2,1.1,47,0.00,,,0.00,WUHU216HW,2013-01-11 15:23:00,
2013-01-11 10:28:00,36.4,20.9,30.43,SE,135,2.5,2.5,53,0.00,,,0.00,WUHU216HW,2013-01-11 15:28:00,
2013-01-11 10:33:00,36.2,20.3,30.43,ESE,113,0.7,3.4,52,0.00,,,0.00,WUHU216HW,2013-01-11 15:33:00,
2013-01-11 10:38:00,36.4,20.4,30.43,ESE,113,0.2,3.4,52,0.00,,,0.00,WUHU216HW,2013-01-11 15:38:00,
2013-01-11 10:43:00,36.9,21.8,30.43,SE,135,0.0,1.3,54,0.00,,,0.00,WUHU216HW,2013-01-11 15:43:00,
2013-01-11 10:48:00,37.4,21.8,30.42,SSE,158,0.0,1.1,53,0.00,,,0.00,WUHU216HW,2013-01-11 15:48:00,
2013-01-11 10:53:00,38.2,22.5,30.42,SE,135,0.0,1.1,53,0.00,,,0.00,WUHU216HW,2013-01-11 15:53:00,
2013-01-11 10:58:00,38.7,22.5,30.42,SSW,203,0.0,0.9,52,0.00,,,0.00,WUHU216HW,2013-01-11 15:58:00,
2013-01-11 11:03:00,39.6,22.9,30.42,SSW,203,0.7,3.4,51,0.00,,,0.00,WUHU216HW,2013-01-11 16:03:00,
2013-01-11 11:08:00,40.3,23.6,30.42,SE,135,2.0,3.4,51,0.00,,,0.00,WUHU216HW,2013-01-11 16:08:00,
2013-01-11 11:13:00,40.7,25.7,30.41,SSE,158,2.9,3.4,55,0.00,,,0.00,WUHU216HW,2013-01-11 16:13:00,
2013-01-11 11:18:00,40.0,24.1,30.40,South,180,1.8,2.9,53,0.00,,,0.00,WUHU216HW,2013-01-11 16:18:00,
2013-01-11 11:23:00,39.6,24.2,30.40,SSE,158,1.6,2.9,54,0.00,,,0.00,WUHU216HW,2013-01-11 16:23:00,
2013-01-11 11:28:00,39.4,24.0,30.40,South,180,1.8,2.5,54,0.00,,,0.00,WUHU216HW,2013-01-11 16:28:00,
2013-01-11 11:33:00,39.2,24.3,30.39,SSE,158,4.7,4.7,55,0.00,,,0.00,WUHU216HW,2013-01-11 16:33:00,
2013-01-11 11:38:00,38.9,23.9,30.39,South,180,2.0,4.7,55,0.00,,,0.00,WUHU216HW,2013-01-11 16:38:00,
2013-01-11 11:43:00,38.5,23.2,30.39,South,180,0.2,4.7,54,0.00,,,0.00,WUHU216HW,2013-01-11 16:43:00,
2013-01-11 11:48:00,38.7,23.4,30.39,SSE,158,1.1,2.0,54,0.00,,,0.00,WUHU216HW,2013-01-11 16:48:00,
2013-01-11 11:53:00,38.9,23.6,30.38,SSE,158,1.6,1.8,54,0.00,,,0.00,WUHU216HW,2013-01-11 16:53:00,
2013-01-11 11:58:00,39.1,23.7,30.37,SSW,203,1.3,2.9,54,0.00,,,0.00,WUHU216HW,2013-01-11 16:58:00,
2013-01-11 12:03:00,39.1,23.7,30.38,South,180,0.7,2.9,54,0.00,,,0.00,WUHU216HW,2013-01-11 17:03:00,
2013-01-11 12:08:00,39.4,24.0,30.37,SW,225,1.1,2.7,54,0.00,,,0.00,WUHU216HW,2013-01-11 17:08:00,
2013-01-11 12:13:00,39.6,24.2,30.37,SSE,158,2.2,2.2,54,0.00,,,0.00,WUHU216HW,2013-01-11 17:13:00,
2013-01-11 12:18:00,39.6,24.2,30.36,SSW,203,0.2,2.2,54,0.00,,,0.00,WUHU216HW,2013-01-11 17:18:00,
2013-01-11 12:23:00,39.6,24.2,30.36,SW,225,0.7,2.9,54,0.00,,,0.00,WUHU216HW,2013-01-11 17:23:00,
2013-01-11 12:28:00,39.6,24.2,30.36,SSE,158,0.0,2.9,54,0.00,,,0.00,WUHU216HW,2013-01-11 17:28:00,
2013-01-11 12:33:00,39.8,24.0,30.36,South,180,2.7,2.7,53,0.00,,,0.00,WUHU216HW,2013-01-11 17:33:00,
2013-01-11 12:38:00,39.8,24.0,30.36,SSW,203,0.0,2.7,53,0.00,,,0.00,WUHU216HW,2013-01-11 17:38:00,
2013-01-11 12:43:00,40.0,24.1,30.36,SSW,203,1.1,2.7,53,0.00,,,0.00,WUHU216HW,2013-01-11 17:43:00,
2013-01-11 12:48:00,40.1,24.3,30.36,SSE,158,0.0,2.0,53,0.00,,,0.00,WUHU216HW,2013-01-11 17:48:00,
2013-01-11 12:53:00,40.3,24.5,30.36,SSE,158,0.0,1.1,53,0.00,,,0.00,WUHU216HW,2013-01-11 17:53:00,
2013-01-11 12:58:00,40.1,24.3,30.36,SSE,158,1.1,2.5,53,0.00,,,0.00,WUHU216HW,2013-01-11 17:58:00,
2013-01-11 13:03:00,40.0,24.1,30.36,South,180,1.3,2.5,53,0.00,,,0.00,WUHU216HW,2013-01-11 18:03:00,
2013-01-11 13:08:00,39.8,24.0,30.36,South,180,1.8,2.0,53,0.00,,,0.00,WUHU216HW,2013-01-11 18:08:00,
2013-01-11 13:13:00,39.4,23.6,30.35,SSW,203,1.8,2.7,53,0.00,,,0.00,WUHU216HW,2013-01-11 18:13:00,
2013-01-11 13:18:00,39.2,23.1,30.35,SE,135,0.9,5.1,52,0.00,,,0.00,WUHU216HW,2013-01-11 18:18:00,
2013-01-11 13:23:00,39.2,23.1,30.35,SSE,158,1.3,5.1,52,0.00,,,0.00,WUHU216HW,2013-01-11 18:23:00,
2013-01-11 13:28:00,39.2,23.1,30.35,SSE,158,1.6,2.5,52,0.00,,,0.00,WUHU216HW,2013-01-11 18:28:00,
2013-01-11 13:33:00,39.2,22.6,30.35,South,180,1.6,3.1,51,0.00,,,0.00,WUHU216HW,2013-01-11 18:33:00,
2013-01-11 13:38:00,38.9,22.2,30.35,South,180,1.1,3.6,51,0.00,,,0.00,WUHU216HW,2013-01-11 18:38:00,
2013-01-11 13:43:00,38.9,22.2,30.35,SSW,203,0.7,3.6,51,0.00,,,0.00,WUHU216HW,2013-01-11 18:43:00,
2013-01-11 13:48:00,38.9,21.8,30.35,SSW,203,2.7,3.6,50,0.00,,,0.00,WUHU216HW,2013-01-11 18:48:00,
2013-01-11 13:53:00,38.7,21.7,30.34,SSE,158,1.3,3.6,50,0.00,,,0.00,WUHU216HW,2013-01-11 18:53:00,
2013-01-11 13:58:00,38.7,21.7,30.35,South,180,0.4,3.4,50,0.00,,,0.00,WUHU216HW,2013-01-11 18:58:00,
2013-01-11 14:03:00,38.7,21.7,30.34,South,180,1.3,2.2,50,0.00,,,0.00,WUHU216HW,2013-01-11 19:03:00,
2013-01-11 14:08:00,38.5,21.5,30.33,SSE,158,2.9,2.9,50,0.00,,,0.00,WUHU216HW,2013-01-11 19:08:00,
2013-01-11 14:13:00,38.3,20.8,30.33,SSE,158,1.3,3.1,49,0.00,,,0.00,WUHU216HW,2013-01-11 19:13:00,
2013-01-11 14:18:00,38.3,20.3,30.33,SSE,158,3.4,3.4,48,0.00,,,0.00,WUHU216HW,2013-01-11 19:18:00,
2013-01-11 14:23:00,38.2,20.6,30.33,SSE,158,1.3,3.4,49,0.00,,,0.00,WUHU216HW,2013-01-11 19:23:00,
2013-01-11 14:28:00,38.0,20.0,30.33,South,180,1.6,3.4,48,0.00,,,0.00,WUHU216HW,2013-01-11 19:28:00,
2013-01-11 14:33:00,38.0,20.0,30.33,South,180,0.2,2.7,48,0.00,,,0.00,WUHU216HW,2013-01-11 19:33:00,
2013-01-11 14:38:00,37.8,19.8,30.33,South,180,2.2,2.7,48,0.00,,,0.00,WUHU216HW,2013-01-11 19:38:00,
2013-01-11 14:43:00,37.8,19.8,30.33,South,180,1.8,4.0,48,0.00,,,0.00,WUHU216HW,2013-01-11 19:43:00,
2013-01-11 14:48:00,37.6,19.6,30.33,SSE,158,0.9,4.0,48,0.00,,,0.00,WUHU216HW,2013-01-11 19:48:00,
2013-01-11 14:53:00,37.3,19.4,30.32,South,180,0.0,1.8,48,0.00,,,0.00,WUHU216HW,2013-01-11 19:53:00,
2013-01-11 14:58:00,37.3,19.4,30.32,South,180,0.0,1.8,48,0.00,,,0.00,WUHU216HW,2013-01-11 19:58:00,
2013-01-11 15:03:00,37.1,18.6,30.32,SSW,203,0.2,1.6,47,0.00,,,0.00,WUHU216HW,2013-01-11 20:03:00,
2013-01-11 15:08:00,37.1,18.6,30.32,SSW,203,0.0,0.7,47,0.00,,,0.00,WUHU216HW,2013-01-11 20:08:00,
2013-01-11 15:13:00,37.1,18.6,30.31,SSE,158,0.0,0.7,47,0.00,,,0.00,WUHU216HW,2013-01-11 20:13:00,
2013-01-11 15:18:00,37.1,18.6,30.31,South,180,0.0,0.7,47,0.00,,,0.00,WUHU216HW,2013-01-11 20:18:00,
2013-01-11 15:23:00,37.1,18.1,30.31,SSE,158,0.0,0.4,46,0.00,,,0.00,WUHU216HW,2013-01-11 20:23:00,
2013-01-11 15:28:00,36.9,17.9,30.30,South,180,0.0,0.2,46,0.00,,,0.00,WUHU216HW,2013-01-11 20:28:00,
2013-01-11 15:33:00,36.7,17.8,30.30,SSE,158,0.0,1.1,46,0.00,,,0.00,WUHU216HW,2013-01-11 20:33:00,
2013-01-11 15:38:00,36.7,17.8,30.30,SSW,203,0.0,1.1,46,0.00,,,0.00,WUHU216HW,2013-01-11 20:38:00,
2013-01-11 15:43:00,36.4,17.5,30.30,South,180,0.4,1.1,46,0.00,,,0.00,WUHU216HW,2013-01-11 20:43:00,
2013-01-11 15:48:00,36.4,16.9,30.29,South,180,1.3,2.9,45,0.00,,,0.00,WUHU216HW,2013-01-11 20:48:00,
2013-01-11 15:53:00,36.2,16.7,30.29,SSE,158,0.4,2.9,45,0.00,,,0.00,WUHU216HW,2013-01-11 20:53:00,
2013-01-11 15:58:00,36.0,16.1,30.29,SSE,158,0.0,1.8,44,0.00,,,0.00,WUHU216HW,2013-01-11 20:58:00,
2013-01-11 16:03:00,35.8,15.9,30.30,SSW,203,0.0,1.8,44,0.00,,,0.00,WUHU216HW,2013-01-11 21:03:00,
2013-01-11 16:08:00,35.6,15.8,30.29,South,180,0.0,0.9,44,0.00,,,0.00,WUHU216HW,2013-01-11 21:08:00,
2013-01-11 16:13:00,35.6,15.8,30.28,South,180,1.1,1.1,44,0.00,,,0.00,WUHU216HW,2013-01-11 21:13:00,
2013-01-11 16:18:00,35.5,15.1,30.28,South,180,0.4,1.1,43,0.00,,,0.00,WUHU216HW,2013-01-11 21:18:00,
2013-01-11 16:23:00,35.3,15.0,30.28,SSE,158,0.7,0.9,43,0.00,,,0.00,WUHU216HW,2013-01-11 21:23:00,
2013-01-11 16:28:00,35.1,14.8,30.28,South,180,0.9,0.9,43,0.00,,,0.00,WUHU216HW,2013-01-11 21:28:00,
2013-01-11 16:33:00,35.1,14.8,30.28,South,180,0.0,0.9,43,0.00,,,0.00,WUHU216HW,2013-01-11 21:33:00,
2013-01-11 16:38:00,34.9,14.0,30.28,South,180,0.2,0.9,42,0.00,,,0.00,WUHU216HW,2013-01-11 21:38:00,
2013-01-11 16:43:00,34.9,14.0,30.29,South,180,0.0,0.7,42,0.00,,,0.00,WUHU216HW,2013-01-11 21:43:00,
2013-01-11 16:48:00,34.7,13.4,30.28,South,180,0.0,0.7,41,0.00,,,0.00,WUHU216HW,2013-01-11 21:48:00,
2013-01-11 16:53:00,34.6,13.2,30.28,South,180,0.0,0.0,41,0.00,,,0.00,WUHU216HW,2013-01-11 21:53:00,
2013-01-11 16:58:00,34.6,13.8,30.28,South,180,0.0,0.0,42,0.00,,,0.00,WUHU216HW,2013-01-11 21:58:00,
2013-01-11 17:03:00,34.4,13.1,30.28,South,180,0.0,0.0,41,0.00,,,0.00,WUHU216HW,2013-01-11 22:03:00,
2013-01-11 17:08:00,34.4,12.5,30.29,South,180,0.0,0.0,40,0.00,,,0.00,WUHU216HW,2013-01-11 22:08:00,
2013-01-11 17:13:00,34.2,11.8,30.28,SSE,158,0.0,0.0,39,0.00,,,0.00,WUHU216HW,2013-01-11 22:13:00,
2013-01-11 17:18:00,34.2,11.2,30.28,SE,135,0.0,0.0,38,0.00,,,0.00,WUHU216HW,2013-01-11 22:18:00,
2013-01-11 17:23:00,34.2,11.2,30.28,SE,135,0.0,0.0,38,0.00,,,0.00,WUHU216HW,2013-01-11 22:23:00,
2013-01-11 17:28:00,34.2,11.2,30.28,SE,135,0.0,0.0,38,0.00,,,0.00,WUHU216HW,2013-01-11 22:28:00,
2013-01-11 17:33:00,34.0,9.1,30.28,SE,135,0.0,0.0,35,0.00,,,0.00,WUHU216HW,2013-01-11 22:33:00,
2013-01-11 17:38:00,34.0,9.1,30.27,SE,135,0.0,0.0,35,0.00,,,0.00,WUHU216HW,2013-01-11 22:38:00,
2013-01-11 17:43:00,34.0,9.1,30.27,SSE,158,0.0,0.0,35,0.00,,,0.00,WUHU216HW,2013-01-11 22:43:00,
2013-01-11 17:48:00,34.0,7.8,30.27,SSE,158,0.0,0.0,33,0.00,,,0.00,WUHU216HW,2013-01-11 22:48:00,
2013-01-11 17:53:00,33.8,7.7,30.27,SE,135,0.0,0.2,33,0.00,,,0.00,WUHU216HW,2013-01-11 22:53:00,
2013-01-11 17:58:00,33.8,7.7,30.27,SSE,158,0.0,0.2,33,0.00,,,0.00,WUHU216HW,2013-01-11 22:58:00,
2013-01-11 18:03:00,33.8,7.7,30.26,SSE,158,0.0,0.0,33,0.00,,,0.00,WUHU216HW,2013-01-11 23:03:00,
2013-01-11 18:08:00,33.8,7.7,30.26,SSE,158,0.0,0.0,33,0.00,,,0.00,WUHU216HW,2013-01-11 23:08:00,
2013-01-11 18:13:00,33.8,7.7,30.26,SSW,203,0.0,0.0,33,0.00,,,0.00,WUHU216HW,2013-01-11 23:13:00,
2013-01-11 18:18:00,33.8,7.7,30.26,SSE,158,0.0,0.0,33,0.00,,,0.00,WUHU216HW,2013-01-11 23:18:00,
2013-01-11 18:23:00,33.7,6.8,30.25,SSE,158,0.0,0.2,32,0.00,,,0.00,WUHU216HW,2013-01-11 23:23:00,
2013-01-11 18:28:00,33.7,6.2,30.25,SSE,158,0.0,0.2,31,0.00,,,0.00,WUHU216HW,2013-01-11 23:28:00,
2013-01-11 18:33:00,33.7,5.6,30.25,SE,135,0.0,0.4,30,0.00,,,0.00,WUHU216HW,2013-01-11 23:33:00,
2013-01-11 18:38:00,33.7,4.7,30.25,SSE,158,0.0,0.4,29,0.00,,,0.00,WUHU216HW,2013-01-11 23:38:00,
2013-01-11 18:43:00,33.7,3.9,30.24,SSE,158,0.0,0.0,28,0.00,,,0.00,WUHU216HW,2013-01-11 23:43:00,
2013-01-11 18:48:00,33.5,1.9,30.24,SSW,203,0.0,0.0,26,0.00,,,0.00,WUHU216HW,2013-01-11 23:48:00,
2013-01-11 18:53:00,33.5,0.2,30.24,South,180,0.0,0.0,24,0.00,,,0.00,WUHU216HW,2013-01-11 23:53:00,
2013-01-11 18:58:00,33.5,1.1,30.24,South,180,0.0,0.0,25,0.00,,,0.00,WUHU216HW,2013-01-11 23:58:00,
2013-01-11 19:03:00,33.5,-3.3,30.24,South,180,0.0,0.0,20,0.00,,,0.00,WUHU216HW,2013-01-12 00:03:00,
2013-01-11 19:08:00,33.7,-10.3,30.24,South,180,0.0,0.0,15,0.00,,,0.00,WUHU216HW,2013-01-12 00:08:00,
2013-01-11 19:13:00,33.7,-14.4,30.25,South,180,0.0,0.0,12,0.00,,,0.00,WUHU216HW,2013-01-12 00:13:00,
2013-01-11 19:18:00,33.5,-11.8,30.24,South,180,0.0,0.0,14,0.00,,,0.00,WUHU216HW,2013-01-12 00:18:00,
2013-01-11 19:23:00,33.7,-17.2,30.23,SSE,158,0.4,3.4,7,0.00,,,0.00,WUHU216HW,2013-01-12 00:23:00,
2013-01-11 19:28:00,33.5,-17.4,30.23,SSE,158,0.0,3.4,9,0.00,,,0.00,WUHU216HW,2013-01-12 00:28:00,
2013-01-11 19:33:00,33.5,-17.4,30.24,SW,225,0.0,0.4,7,0.01,,,0.00,WUHU216HW,2013-01-12 00:33:00,
2013-01-11 19:38:00,33.5,-17.4,30.23,SSE,158,0.0,0.2,7,0.01,,,0.00,WUHU216HW,2013-01-12 00:38:00,
2013-01-11 19:43:00,33.5,-17.4,30.22,SSE,158,0.2,2.5,3,0.02,,,0.02,WUHU216HW,2013-01-12 00:43:00,
2013-01-11 19:48:00,33.5,-17.4,30.23,NNW,338,0.7,2.5,2,0.02,,,0.02,WUHU216HW,2013-01-12 00:48:00,
2013-01-11 19:53:00,33.5,-17.4,30.23,SW,225,0.0,0.7,1,0.02,,,0.02,WUHU216HW,2013-01-12 00:53:00,
2013-01-11 19:58:00,33.5,-17.4,30.23,SW,225,0.0,0.4,1,0.02,,,0.02,WUHU216HW,2013-01-12 00:58:00,
2013-01-11 20:03:00,33.5,-17.4,30.23,SSW,203,0.0,0.0,1,0.02,,,0.02,WUHU216HW,2013-01-12 01:03:00,
2013-01-11 20:08:00,33.5,-17.4,30.23,SSW,203,0.0,0.0,1,0.02,,,0.02,WUHU216HW,2013-01-12 01:08:00,
2013-01-11 20:13:00,33.5,-17.4,30.23,ENE,68,0.0,0.0,1,0.02,,,0.02,WUHU216HW,2013-01-12 01:13:00,
2013-01-11 20:18:00,33.5,-17.4,30.23,ENE,68,0.0,0.0,1,0.03,,,0.02,WUHU216HW,2013-01-12 01:18:00,
2013-01-11 20:23:00,33.5,-17.4,30.23,ENE,68,0.0,0.0,1,0.04,,,0.04,WUHU216HW,2013-01-12 01:23:00,
2013-01-11 20:28:00,33.5,-17.4,30.23,ENE,68,0.0,0.0,1,0.04,,,0.05,WUHU216HW,2013-01-12 01:28:00,
2013-01-11 20:33:00,33.5,-17.4,30.23,ENE,68,0.0,0.0,1,0.05,,,0.05,WUHU216HW,2013-01-12 01:33:00,
2013-01-11 20:38:00,33.5,-17.4,30.23,ENE,68,0.0,0.0,1,0.05,,,0.05,WUHU216HW,2013-01-12 01:38:00,
2013-01-11 20:43:00,33.5,-17.4,30.22,SE,135,0.0,0.0,1,0.05,,,0.07,WUHU216HW,2013-01-12 01:43:00,
2013-01-11 20:48:00,33.5,-17.4,30.22,SE,135,0.0,0.0,1,0.05,,,0.07,WUHU216HW,2013-01-12 01:48:00,
2013-01-11 20:53:00,33.5,-17.4,30.22,SE,135,0.0,0.0,1,0.06,,,0.07,WUHU216HW,2013-01-12 01:53:00,
2013-01-11 20:58:00,33.5,-17.4,30.22,SE,135,0.2,0.2,1,0.06,,,0.07,WUHU216HW,2013-01-12 01:58:00,
2013-01-11 21:03:00,33.5,-17.4,30.21,SSE,158,0.2,0.7,1,0.06,,,0.07,WUHU216HW,2013-01-12 02:03:00,
2013-01-11 21:08:00,33.5,-17.4,30.21,SSE,158,0.0,0.7,1,0.06,,,0.07,WUHU216HW,2013-01-12 02:08:00,
2013-01-11 21:13:00,33.5,-17.4,30.21,SSE,158,0.0,0.4,1,0.05,,,0.07,WUHU216HW,2013-01-12 02:13:00,
2013-01-11 21:18:00,33.5,-17.4,30.21,SSE,158,0.0,0.4,1,0.05,,,0.07,WUHU216HW,2013-01-12 02:18:00,
2013-01-11 21:23:00,33.5,-17.4,30.21,SSE,158,0.0,0.0,1,0.05,,,0.09,WUHU216HW,2013-01-12 02:23:00,
2013-01-11 21:28:00,33.5,-17.4,30.21,SSE,158,0.0,0.0,1,0.03,,,0.09,WUHU216HW,2013-01-12 02:28:00,
2013-01-11 21:33:00,33.5,-17.4,30.21,SE,135,0.0,0.0,1,0.03,,,0.09,WUHU216HW,2013-01-12 02:33:00,
2013-01-11 21:38:00,33.5,-17.4,30.21,SE,135,0.0,0.0,1,0.03,,,0.09,WUHU216HW,2013-01-12 02:38:00,
2013-01-11 21:43:00,33.5,-17.4,30.21,SE,135,0.0,0.0,1,0.03,,,0.10,WUHU216HW,2013-01-12 02:43:00,
2013-01-11 21:48:00,33.5,-17.4,30.21,SE,135,0.0,0.0,1,0.03,,,0.10,WUHU216HW,2013-01-12 02:48:00,
2013-01-11 21:53:00,33.5,-17.4,30.21,SE,135,0.0,0.0,1,0.02,,,0.10,WUHU216HW,2013-01-12 02:53:00,
2013-01-11 21:58:00,33.5,-17.4,30.21,SE,135,0.0,0.0,1,0.02,,,0.10,WUHU216HW,2013-01-12 02:58:00,
2013-01-11 22:03:00,33.5,-17.4,30.21,SE,135,0.0,0.0,1,0.03,,,0.11,WUHU216HW,2013-01-12 03:03:00,
2013-01-11 22:08:00,33.5,-17.4,30.21,SE,135,0.0,0.0,1,0.03,,,0.11,WUHU216HW,2013-01-12 03:08:00,
2013-01-11 22:13:00,33.5,-17.4,30.20,SE,135,0.0,0.0,1,0.04,,,0.12,WUHU216HW,2013-01-12 03:13:00,
2013-01-11 22:18:00,33.5,-17.4,30.20,SE,135,0.0,0.0,1,0.04,,,0.12,WUHU216HW,2013-01-12 03:18:00,
2013-01-11 22:23:00,33.5,-17.4,30.20,SE,135,0.0,0.0,1,0.03,,,0.12,WUHU216HW,2013-01-12 03:23:00,
2013-01-11 22:28:00,33.5,-17.4,30.20,SSE,158,0.0,0.0,1,0.03,,,0.12,WUHU216HW,2013-01-12 03:28:00,
2013-01-11 22:33:00,33.5,-17.4,30.20,SSE,158,0.0,0.0,1,0.03,,,0.12,WUHU216HW,2013-01-12 03:33:00,
2013-01-11 22:38:00,33.7,-17.2,30.20,SSE,158,0.0,0.0,1,0.03,,,0.13,WUHU216HW,2013-01-12 03:38:00,
2013-01-11 22:43:00,33.7,-17.2,30.20,SSE,158,0.0,0.0,1,0.03,,,0.13,WUHU216HW,2013-01-12 03:43:00,
2013-01-11 22:48:00,33.7,-17.2,30.20,SSE,158,0.0,0.0,1,0.03,,,0.13,WUHU216HW,2013-01-12 03:48:00,
2013-01-11 22:53:00,33.8,-17.1,30.21,North,0,0.0,0.2,1,0.03,,,0.13,WUHU216HW,2013-01-12 03:53:00,
2013-01-11 22:58:00,33.8,-17.1,30.21,North,0,0.0,0.2,1,0.02,,,0.13,WUHU216HW,2013-01-12 03:58:00,
2013-01-11 23:03:00,33.8,-17.1,30.21,North,0,0.0,0.0,1,0.03,,,0.14,WUHU216HW,2013-01-12 04:03:00,
2013-01-11 23:08:00,33.8,-17.1,30.20,North,0,0.0,0.0,1,0.02,,,0.14,WUHU216HW,2013-01-12 04:08:00,
2013-01-11 23:13:00,33.8,-17.1,30.20,North,0,0.0,0.0,1,0.03,,,0.15,WUHU216HW,2013-01-12 04:13:00,
2013-01-11 23:18:00,33.7,-17.2,30.20,North,0,0.0,0.0,1,0.03,,,0.15,WUHU216HW,2013-01-12 04:18:00,
2013-01-11 23:23:00,33.7,-17.2,30.20,North,0,0.0,0.0,1,0.04,,,0.16,WUHU216HW,2013-01-12 04:23:00,
2013-01-11 23:28:00,33.5,-17.4,30.20,North,0,0.0,0.0,1,0.04,,,0.16,WUHU216HW,2013-01-12 04:28:00,
2013-01-11 23:33:00,33.5,-17.4,30.20,North,0,0.0,0.0,1,0.03,,,0.16,WUHU216HW,2013-01-12 04:33:00,
2013-01-11 23:38:00,33.5,-17.4,30.20,North,0,0.0,0.0,1,0.03,,,0.16,WUHU216HW,2013-01-12 04:38:00,
2013-01-11 23:43:00,33.5,-17.4,30.19,North,0,0.0,0.0,1,0.03,,,0.16,WUHU216HW,2013-01-12 04:43:00,
2013-01-11 23:48:00,33.7,-17.2,30.19,North,0,0.0,0.0,1,0.03,,,0.16,WUHU216HW,2013-01-12 04:48:00,
2013-01-11 23:53:00,33.5,-17.4,30.19,North,0,0.0,0.0,1,0.03,,,0.16,WUHU216HW,2013-01-12 04:53:00,
2013-01-11 23:58:00,33.5,-17.4,30.19,NNE,23,0.0,0.0,1,0.03,,,0.17,WUHU216HW,2013-01-12 04:58:00,